SCP
0 0 0 0 0 0 0 0 0 0 0 0 0 0 0 0 0 0 -0 -0 -0 -0 -0 -0 -0 -0 -0 -0 -0 -0 -0 -0 -0 -0 -0 -0 -0 0
0 0 0 0 0 0 0 0 0 0 0 0 0 0 0 0 0 0 -0 -0 -0 -0 -0 -0 -0 -0 -0 0 0 0 0 0 0 0 0 0 -0 -0
0 0 0 0 0 0 0 0 0 0 0 0 0 0 0 0 0 -0 -0 -0 -0 -0 -0 -0 -0 -0 0 0 0 0 0 0 0 0 0 0 0 0
0 0 0 0 0 0 0 0 0 0 0 0 0 0 0 0 -0 -0 -0 -0 -0 -0 -0 -0 -0 0 0 0 0 0 0 0 0 0 0 0 0 0
0 0 0 0 0 0 0 0 0 0 0 0 0 0 0 -0 -0 -0 -0 -0 -0 -0 -0 -0 -0 -0 -0 0 0 0 0 0 0 0 0 0 0 0
0 0 0 0 0 0 0 0 0 0 0 0 0 0 0 -0 -0 -0 -0 -0 -0 -0 -0 -0 -0 -0 -0 -0 -0 0 0 0 0 0 0 0 0 0
0 0 0 0 0 0 0 0 0 0 0 0 0 0 0 0 0 0 0 0 0 0 0 0 0 0 0 0 0 0 0 0 0 0 0 0 0 0
0 0 0 0 0 0 0 0 0 0 0 0 0 0 0 0 0 0 0 0 0 -0 0 0 0 0 0 0 0 0 0 0 0 0 0 0 0 0
0 0 0 0 0 0 0 0 0 0 0 0 0 0 0 0 0 0 0 0 0 0 0 0 0 0 0 0 0 0 0 0 0 0 0 0 0 0
0 0 0 0 0 0 0 0 0 0 0 0 0 0 0 0 0 0 0 0 0 0 0 0 0 0 0 0 0 0 0 0 0 0 0 0 0 0
0 0 0 0 0 0 0 0 0 0 0 0 0 0 0 0 0 0 0 0 0 0 0 0 0 0 0 0 0 0 0 0 0 0 0 0 0 0
0 0 0 0 0 0 0 0 0 0 0 0 0 0 0 0 0 0 0 0 0 0 0 0 0 0 0 0 0 0 0 0 0 0 0 0 0 0
0 0 0 0 0 0 0 0 0 0 0 0 0 0 0 0 0 0 0 0 0 0 0 0 0 0 0 0 0 0 0 0 0 0 0 0 0 0
0 0 0 0 0 0 0 0 0 0 0 0 0 0 0 0 0 0 0 0 0 0 0 0 0 0 0 0 0 0 0 0 0 0 0 0 0 0
0 0 0 0 0 0 0 0 0 0 0 0 0 0 0 0 0 0 0 0 0 0 0 0 0 0 0 0 0 0 0 0 0 0 0 0 0 0
0 0 0 0 0 0 0 0 0 0 0 0 0 0 0 0 0 0 0 0 0 0 0 0 0 0 0 0 0 0 0 0 0 0 0 0 0 0
0 0 0 0 0 0 0 0 0 0 0 0 0 0 0 0 0 0 0 0 0 0 0 0 0 0 0 0 0 0 0 0 0 0 0 0 0 0
0 0 0 0 0 0 0 0 0 0 0 0 0 0 0 0 0 0 0 0 0 0 0 0 0 0 0 0 0 0 0 0 0 0 0 0 0 0
0 0 0 0 0 0 0 0 0 0 0 0 0 0 0 0 0 0 0 0 0 0 0 0 0 0 0 0 0 0 0 0 0 0 0 0 0 0
0 0 0 0 0 0 0 0 0 0 0 0 0 0 0 0 0 0 0 0 0 0 0 0 0 0 0 0 0 0 0 0 0 -0 -0 0 0 0
0 0 0 0 0 0 0 0 0 0 0 0 0 0 0 0 0 0 0 0 0 0 0 0 0 0 0 0 0 0 0 0 0 -0 -0 -0 0 0
0 0 0 0 0 0 0 0 0 0 0 0 0 0 0 0 0 0 0 0 0 0 0 0 0 0 0 0 0 0 0 0 0 0 0 -0 0 0
0 0 0 0 0 0 0 0 0 0 0 0 0 0 0 0 0 0 0 0 0 0 0 0 0 0 0 0 0 0 -0 0 -0 -0 -0 -0 -0 0
Wind_Speed_500mb
52 51 48 44 41 41 39 39 38 26 42 46 44 53 65 72 76 83 87 87 86 85 86 87 90 92 95 101 102 103 103 101 92 80 80 80 79 84
59 55 50 46 44 43 41 40 40 43 44 50 60 67 72 77 77 83 87 87 88 87 86 88 91 94 98 101 102 104 105 98 99 98 89 88 87 90
64 57 52 49 47 46 44 44 42 46 63 74 71 74 77 81 83 88 89 88 89 85 87 92 93 92 92 97 99 97 94 97 99 103 101 100 98 97
67 60 55 52 49 48 46 45 46 46 58 74 81 80 82 87 90 88 88 91 92 91 95 95 96 96 96 96 97 97 96 94 96 100 99 97 96 98
68 62 57 54 51 49 47 44 44 48 53 70 82 85 87 85 91 91 95 99 100 101 102 103 102 98 94 90 92 88 87 89 92 93 94 93 92 92
72 64 59 56 51 49 48 43 44 48 55 65 76 85 86 86 88 97 106 101 107 107 107 107 109 107 98 99 91 84 87 87 87 92 96 99 97 96
73 66 61 55 50 50 48 45 41 47 53 61 72 81 85 89 88 96 103 110 111 107 113 112 113 109 117 116 111 104 93 84 83 84 86 88 91 92
75 67 61 56 53 53 49 42 45 50 55 58 65 75 81 81 86 91 98 103 111 106 114 122 108 119 120 122 111 88 86 87 87 88 95 99 95 94
76 67 63 58 54 49 44 39 43 43 48 50 62 64 74 73 79 86 86 91 95 109 123 137 111 127 119 118 103 91 89 90 91 92 95 98 101 103
74 68 63 55 52 47 44 42 43 43 43 49 57 62 66 69 72 78 84 102 112 110 105 118 106 126 114 111 97 87 91 90 91 93 93 94 94 100
78 72 64 56 52 43 44 44 42 40 42 49 53 57 61 63 62 78 87 92 109 109 104 98 99 105 99 109 109 99 92 92 92 89 88 89 92 95
75 67 61 57 46 43 42 41 38 39 45 51 51 52 58 64 63 66 75 82 90 95 68 73 103 90 106 121 78 57 70 77 78 75 79 83 84 85
75 70 62 49 43 42 39 36 37 37 42 47 51 54 58 62 65 66 68 73 84 96 107 77 102 107 96 119 129 104 94 99 94 96 92 89 91 91
74 66 54 47 44 40 35 31 31 35 40 43 47 51 57 62 66 69 73 76 78 89 98 83 105 112 113 123 125 108 95 94 90 92 89 90 79 76
66 58 48 49 48 40 33 29 30 32 36 42 48 49 53 61 69 73 77 80 89 91 88 90 98 109 105 115 129 122 106 103 87 83 86 89 91 90
62 54 52 48 42 35 31 27 28 31 36 41 46 48 54 62 70 74 80 83 91 106 86 79 88 94 109 110 112 128 108 107 92 95 91 86 87 84
64 58 53 51 42 37 31 27 29 32 33 36 41 48 55 63 71 74 77 84 88 93 104 95 85 90 101 107 115 113 113 109 102 99 86 99 101 99
75 62 60 50 43 35 29 28 29 27 30 33 40 46 54 63 74 79 79 83 86 95 99 106 99 97 100 105 89 109 106 106 105 98 98 94 97 101
71 62 57 50 42 34 31 31 28 26 27 32 40 48 55 64 73 81 87 87 91 96 100 101 99 90 99 111 99 71 92 91 101 83 92 99 104 106
63 66 60 51 39 35 31 28 26 24 27 31 40 48 57 67 76 82 89 85 98 107 107 98 91 88 89 109 129 114 88 95 95 93 100 64 97 106
63 59 54 45 38 34 28 25 25 25 27 32 39 49 59 70 78 83 90 97 99 99 104 108 105 102 105 107 113 118 98 78 84 96 108 98 85 74
63 57 47 39 33 31 23 24 23 26 29 33 42 50 61 69 77 85 91 100 104 100 106 111 111 103 97 92 108 115 114 92 81 82 93 103 84 80
56 48 41 34 29 24 21 21 24 26 30 35 44 50 64 74 78 84 100 103 103 105 104 113 112 100 98 94 99 107 106 101 88 84 95 96 110 126
Wind_Direction_500mb
247 253 260 264 268 273 277 282 286 288 299 308 305 312 313 315 317 317 318 320 319 316 315 312 309 307 305 303 301 298 296 293 290 288 286 282 281 275
244 248 253 259 265 268 272 278 285 289 284 296 300 306 310 312 315 313 314 317 315 313 311 308 307 306 303 298 293 290 288 289 287 285 283 281 279 275
242 245 249 253 258 264 268 274 281 288 293 301 304 308 312 313 317 320 321 317 314 311 309 307 307 305 300 295 292 288 287 284 282 281 279 277 275 272
239 244 249 252 256 261 266 272 280 289 294 301 305 310 313 316 319 318 318 317 316 315 315 315 315 310 305 300 295 291 290 288 283 278 276 274 272 268
239 242 247 252 258 263 266 270 281 289 294 299 305 309 313 317 317 320 321 320 319 319 317 317 315 309 306 304 299 293 288 288 282 275 270 269 268 267
237 240 243 247 252 258 264 273 282 290 295 298 302 307 314 319 323 323 318 317 317 317 317 315 312 311 308 307 297 287 283 281 280 273 269 266 265 265
234 236 239 244 251 257 263 271 281 287 294 299 303 311 315 319 321 320 316 315 315 316 316 314 314 309 310 308 303 298 292 279 277 275 268 263 260 262
232 234 238 243 248 255 261 273 287 293 296 302 305 307 310 315 316 315 316 316 314 317 316 307 307 304 304 301 295 282 280 279 278 274 266 263 264 265
230 232 234 238 244 252 262 274 280 286 288 289 296 304 308 311 312 314 311 306 301 304 306 300 299 297 297 292 289 280 277 276 274 274 266 264 263 265
227 231 233 237 244 248 259 268 274 279 288 291 295 304 308 311 307 303 298 297 300 304 306 295 304 304 304 300 292 282 279 275 272 273 267 264 264 264
224 227 230 233 240 251 259 267 275 286 292 293 298 303 304 302 299 300 303 303 303 305 307 299 308 304 298 292 290 286 278 273 274 273 265 264 265 265
220 223 227 233 235 246 254 264 276 287 292 296 298 304 306 305 306 303 302 300 304 303 311 300 302 299 299 299 299 294 287 281 278 274 267 264 264 261
219 220 225 228 234 242 251 262 276 283 288 295 301 307 307 308 310 310 310 309 305 292 309 293 295 295 288 288 291 287 283 276 274 273 271 267 261 260
220 219 220 225 235 237 243 256 267 279 288 291 298 305 309 314 316 316 315 312 307 302 313 299 290 290 290 290 287 290 282 279 271 270 270 274 267 259
219 221 217 223 228 232 238 245 261 273 282 290 299 307 315 318 319 319 316 319 318 316 310 297 288 288 281 281 285 285 285 277 274 272 268 264 262 267
213 219 221 228 222 223 230 242 260 273 282 292 300 313 318 322 323 325 321 323 315 322 312 294 291 284 279 278 278 280 279 274 276 268 261 263 263 262
222 218 219 217 214 220 228 243 258 270 280 292 307 317 321 324 327 327 326 325 313 314 309 306 298 289 283 279 277 275 277 274 271 267 265 258 256 257
214 211 215 213 216 220 230 247 259 270 285 302 313 320 323 330 329 328 333 322 315 308 307 310 307 301 293 284 273 276 275 273 272 267 260 258 257 257
207 209 208 210 214 222 232 245 257 273 294 309 319 322 328 331 331 332 334 329 314 309 308 308 306 302 297 292 293 278 277 277 275 269 259 251 252 254
204 201 201 204 212 226 235 247 265 284 302 316 322 327 331 332 333 336 333 323 315 314 310 310 305 301 294 291 293 291 280 275 270 270 263 264 256 259
196 198 201 201 207 224 237 253 273 293 306 317 323 330 332 335 335 337 332 322 318 313 308 310 308 305 300 297 290 289 287 275 264 262 260 262 263 255
194 197 200 202 212 227 236 258 275 294 309 318 329 331 333 337 338 339 327 322 321 315 309 310 313 312 306 297 291 292 292 288 277 263 252 248 248 248
193 198 201 208 216 232 247 263 279 295 314 321 326 330 335 336 341 339 330 328 324 319 315 315 315 315 308 302 297 294 292 289 284 276 269 248 249 249
Wind_Speed_850mb
52 51 48 44 41 41 39 39 38 26 42 46 44 53 65 72 76 83 87 87 86 85 86 87 90 92 95 101 102 103 103 101 92 80 80 80 79 84
59 55 50 46 44 43 41 40 40 43 44 50 60 67 72 77 77 83 87 87 88 87 86 88 91 94 98 101 102 104 105 98 99 98 89 88 87 90
64 57 52 49 47 46 44 44 42 46 63 74 71 74 77 81 83 88 89 88 89 85 87 92 93 92 92 97 99 97 94 97 99 103 101 100 98 97
67 60 55 52 49 48 46 45 46 46 58 74 81 80 82 87 90 88 88 91 92 91 95 95 96 96 96 96 97 97 96 94 96 100 99 97 96 98
68 62 57 54 51 49 47 44 44 48 53 70 82 85 87 85 91 91 95 99 100 101 102 103 102 98 94 90 92 88 87 89 92 93 94 93 92 92
72 64 59 56 51 49 48 43 44 48 55 65 76 85 86 86 88 97 106 101 107 107 107 107 109 107 98 99 91 84 87 87 87 92 96 99 97 96
73 66 61 55 50 50 48 45 41 47 53 61 72 81 85 89 88 96 103 110 111 107 113 112 113 109 117 116 111 104 93 84 83 84 86 88 91 92
75 67 61 56 53 53 49 42 45 50 55 58 65 75 81 81 86 91 98 103 111 106 114 122 108 119 120 122 111 88 86 87 87 88 95 99 95 94
76 67 63 58 54 49 44 39 43 43 48 50 62 64 74 73 79 86 86 91 95 109 123 137 111 127 119 118 103 91 89 90 91 92 95 98 101 103
74 68 63 55 52 47 44 42 43 43 43 49 57 62 66 69 72 78 84 102 112 110 105 118 106 126 114 111 97 87 91 90 91 93 93 94 94 100
78 72 64 56 52 43 44 44 42 40 42 49 53 57 61 63 62 78 87 92 109 109 104 98 99 105 99 109 109 99 92 92 92 89 88 89 92 95
75 67 61 57 46 43 42 41 38 39 45 51 51 52 58 64 63 66 75 82 90 95 68 73 103 90 106 121 78 57 70 77 78 75 79 83 84 85
75 70 62 49 43 42 39 36 37 37 42 47 51 54 58 62 65 66 68 73 84 96 107 77 102 107 96 119 129 104 94 99 94 96 92 89 91 91
74 66 54 47 44 40 35 31 31 35 40 43 47 51 57 62 66 69 73 76 78 89 98 83 105 112 113 123 125 108 95 94 90 92 89 90 79 76
66 58 48 49 48 40 33 29 30 32 36 42 48 49 53 61 69 73 77 80 89 91 88 90 98 109 105 115 129 122 106 103 87 83 86 89 91 90
62 54 52 48 42 35 31 27 28 31 36 41 46 48 54 62 70 74 80 83 91 106 86 79 88 94 109 110 112 128 108 107 92 95 91 86 87 84
64 58 53 51 42 37 31 27 29 32 33 36 41 48 55 63 71 74 77 84 88 93 104 95 85 90 101 107 115 113 113 109 102 99 86 99 101 99
75 62 60 50 43 35 29 28 29 27 30 33 40 46 54 63 74 79 79 83 86 95 99 106 99 97 100 105 89 109 106 106 105 98 98 94 97 101
71 62 57 50 42 34 31 31 28 26 27 32 40 48 55 64 73 81 87 87 91 96 100 101 99 90 99 111 99 71 92 91 101 83 92 99 104 106
63 66 60 51 39 35 31 28 26 24 27 31 40 48 57 67 76 82 89 85 98 107 107 98 91 88 89 109 129 114 88 95 95 93 100 64 97 106
63 59 54 45 38 34 28 25 25 25 27 32 39 49 59 70 78 83 90 97 99 99 104 108 105 102 105 107 113 118 98 78 84 96 108 98 85 74
63 57 47 39 33 31 23 24 23 26 29 33 42 50 61 69 77 85 91 100 104 100 106 111 111 103 97 92 108 115 114 92 81 82 93 103 84 80
56 48 41 34 29 24 21 21 24 26 30 35 44 50 64 74 78 84 100 103 103 105 104 113 112 100 98 94 99 107 106 101 88 84 95 96 110 126
Wind_Direction_850mb
247 253 260 264 268 273 277 282 286 288 299 308 305 312 313 315 317 317 318 320 319 316 315 312 309 307 305 303 301 298 296 293 290 288 286 282 281 275
244 248 253 259 265 268 272 278 285 289 284 296 300 306 310 312 315 313 314 317 315 313 311 308 307 306 303 298 293 290 288 289 287 285 283 281 279 275
242 245 249 253 258 264 268 274 281 288 293 301 304 308 312 313 317 320 321 317 314 311 309 307 307 305 300 295 292 288 287 284 282 281 279 277 275 272
239 244 249 252 256 261 266 272 280 289 294 301 305 310 313 316 319 318 318 317 316 315 315 315 315 310 305 300 295 291 290 288 283 278 276 274 272 268
239 242 247 252 258 263 266 270 281 289 294 299 305 309 313 317 317 320 321 320 319 319 317 317 315 309 306 304 299 293 288 288 282 275 270 269 268 267
237 240 243 247 252 258 264 273 282 290 295 298 302 307 314 319 323 323 318 317 317 317 317 315 312 311 308 307 297 287 283 281 280 273 269 266 265 265
234 236 239 244 251 257 263 271 281 287 294 299 303 311 315 319 321 320 316 315 315 316 316 314 314 309 310 308 303 298 292 279 277 275 268 263 260 262
232 234 238 243 248 255 261 273 287 293 296 302 305 307 310 315 316 315 316 316 314 317 316 307 307 304 304 301 295 282 280 279 278 274 266 263 264 265
230 232 234 238 244 252 262 274 280 286 288 289 296 304 308 311 312 314 311 306 301 304 306 300 299 297 297 292 289 280 277 276 274 274 266 264 263 265
227 231 233 237 244 248 259 268 274 279 288 291 295 304 308 311 307 303 298 297 300 304 306 295 304 304 304 300 292 282 279 275 272 273 267 264 264 264
224 227 230 233 240 251 259 267 275 286 292 293 298 303 304 302 299 300 303 303 303 305 307 299 308 304 298 292 290 286 278 273 274 273 265 264 265 265
220 223 227 233 235 246 254 264 276 287 292 296 298 304 306 305 306 303 302 300 304 303 311 300 302 299 299 299 299 294 287 281 278 274 267 264 264 261
219 220 225 228 234 242 251 262 276 283 288 295 301 307 307 308 310 310 310 309 305 292 309 293 295 295 288 288 291 287 283 276 274 273 271 267 261 260
220 219 220 225 235 237 243 256 267 279 288 291 298 305 309 314 316 316 315 312 307 302 313 299 290 290 290 290 287 290 282 279 271 270 270 274 267 259
219 221 217 223 228 232 238 245 261 273 282 290 299 307 315 318 319 319 316 319 318 316 310 297 288 288 281 281 285 285 285 277 274 272 268 264 262 267
213 219 221 228 222 223 230 242 260 273 282 292 300 313 318 322 323 325 321 323 315 322 312 294 291 284 279 278 278 280 279 274 276 268 261 263 263 262
222 218 219 217 214 220 228 243 258 270 280 292 307 317 321 324 327 327 326 325 313 314 309 306 298 289 283 279 277 275 277 274 271 267 265 258 256 257
214 211 215 213 216 220 230 247 259 270 285 302 313 320 323 330 329 328 333 322 315 308 307 310 307 301 293 284 273 276 275 273 272 267 260 258 257 257
207 209 208 210 214 222 232 245 257 273 294 309 319 322 328 331 331 332 334 329 314 309 308 308 306 302 297 292 293 278 277 277 275 269 259 251 252 254
204 201 201 204 212 226 235 247 265 284 302 316 322 327 331 332 333 336 333 323 315 314 310 310 305 301 294 291 293 291 280 275 270 270 263 264 256 259
196 198 201 201 207 224 237 253 273 293 306 317 323 330 332 335 335 337 332 322 318 313 308 310 308 305 300 297 290 289 287 275 264 262 260 262 263 255
194 197 200 202 212 227 236 258 275 294 309 318 329 331 333 337 338 339 327 322 321 315 309 310 313 312 306 297 291 292 292 288 277 263 252 248 248 248
193 198 201 208 216 232 247 263 279 295 314 321 326 330 335 336 341 339 330 328 324 319 315 315 315 315 308 302 297 294 292 289 284 276 269 248 249 249